Location: Boekendries
(50.7667°N, 3.6167°E)
Time: 23:39:58
(UTC+00:00)

Daily predictions for brighter satellites

Satellite Brightness Start Highest point End
(mag) Time Altitude Azimuth Time Altitude Azimuth Time Altitude Azimuth
Aureole 3 4.1 20:39:28 10° S 20:44:08 72° E 20:49:58 10° NNE
Cosmos 1707 Rocket 3.7 20:39:59 10° SSW 20:44:25 80° W 20:48:51 10° N
Cosmos 1758 4.5 20:40:41 10° NNW 20:44:26 42° W 20:48:09 10° SSW
Cosmos 1356 Rocket 3.9 20:40:21 10° SSW 20:44:32 66° WNW 20:48:43 10° N
Cosmos 2219 Rocket 2.8 20:43:17 10° NW 20:48:50 57° WSW 20:54:22 10° S
ATLAS CENTAUR R/B 3.6 20:49:55 10° W 20:52:59 27° NW 20:56:11 10° NNE
BREEZE-M DEB (TANK) 3.7 20:49:04 10° WSW 20:53:00 70° SSE 21:07:50 10° E
ATLAS 2AS CENTAUR R/B 4.0 20:48:07 10° NW 20:53:59 32° WSW 20:59:42 10° S
Landsat 4 3.6 20:52:29 10° SSE 20:55:52 64° ENE 20:59:16 10° N
Cosmos 1733 Rocket 4.0 20:52:31 10° NNW 20:56:46 47° W 21:01:00 10° SSW
Cosmos 1455 2.0 20:55:39 10° N 20:59:11 69° E 21:02:40 10° SSE
Spot 2 Rocket 3.6 20:57:38 10° SSE 21:02:44 85° WSW 21:07:52 10° NNW
Cosmos 1408 4.0 21:01:39 10° SE 21:03:32 16° E 21:05:26 10° NE
SPOT 3 Rocket 3.6 20:59:33 10° SSE 21:04:43 87° ENE 21:09:56 10° NNW
Resurs 01 Rocket 4.4 21:07:28 10° WSW 21:09:06 12° W 21:10:45 10° WNW
Iridium 51 4.4 21:06:39 10° S 21:10:52 83° E 21:14:53 10° N
SeaSat 1 2.5 21:08:39 10° SSE 21:13:34 84° WSW 21:18:31 10° NNW
Cosmos 2360 Rocket 4.3 21:14:08 10° NW 21:18:04 20° W 21:22:00 10° SW
Cosmos 158 Rocket 4.0 21:13:12 10° NNW 21:18:31 85° WSW 21:23:25 11° SSE
Cosmos 1953 2.5 21:14:48 10° NNW 21:18:36 65° W 21:22:21 10° S
Cosmos 1908 Rocket 3.6 21:14:30 10° NNW 21:18:51 80° W 21:23:09 10° S
COSMOS 2428 3.0 21:13:47 10° NW 21:19:27 67° WSW 21:25:01 10° SSE
Cosmos 2208 Rocket 4.1 21:14:54 10° NNW 21:20:06 80° WSW 21:25:04 11° SSE
Cosmos 1782 Rocket 3.7 21:18:29 10° N 21:22:48 62° ENE 21:26:41 12° SSE
CENTAUR R/B 3.7 21:23:46 12° SSE 21:27:25 20° ESE 21:32:05 10° ENE
Cosmos 1300 Rocket 3.7 21:23:52 10° N 21:28:09 58° ENE 21:31:51 14° SSE
Ariane Rocket 3.5 21:23:11 10° S 21:28:11 57° W 21:33:13 10° NNW
EXPRESS MD2 2.1 21:26:54 10° W 21:29:26 51° SSW 21:30:59 16° ESE
Cosmos 2084 Rocket 3.9 21:28:16 10° SSW 21:32:16 39° SE 21:36:09 10° ENE
Cosmos 1486 Rocket 4.1 21:32:54 10° S 21:37:59 60° ESE 21:43:09 10° NNE
Cosmos 1315 Rocket 3.9 21:35:35 10° SW 21:39:24 44° WNW 21:43:16 10° N
Cosmos 405 Rocket 3.9 21:37:46 10° N 21:41:09 30° ENE 21:43:50 14° SE
GP-B 3.2 21:39:02 10° N 21:43:26 65° E 21:47:06 14° S
BREEZE-M DEB (TANK) 2.5 21:39:27 10° W 21:44:45 60° N 21:47:00 10° ENE
MetOp-A 4.1 21:40:03 13° SSE 21:44:50 82° WSW 21:50:00 10° NNW
ARIANE 5 R/B 3.3 21:41:49 14° SE 21:45:14 42° ENE 21:49:23 10° N
NOSS 0 Rocket 4.2 21:39:35 10° NW 21:45:46 64° WSW 21:51:08 14° SSE
SJ 16-02 3.7 21:43:00 10° WSW 21:46:38 25° NW 21:50:17 10° N
BlueWalker 3 2.2 21:44:22 10° W 21:48:06 68° NNW 21:51:51 10° ENE
Cosmos 371 Rocket 3.3 21:44:32 10° S 21:49:17 66° ESE 21:54:06 10° NNE
SL-4 R/B 3.5 21:46:21 10° W 21:49:19 21° SW 21:51:27 14° S
USA 234 3.4 21:43:39 10° ENE 21:49:59 50° SE 21:56:17 10° SSW
Terra 3.5 21:49:31 10° SSW 21:53:30 27° W 21:57:32 10° NW
Spot 1 4.4 21:50:20 10° NNE 21:55:03 84° WNW 22:00:00 10° SSW
NOSS 8 (A) 4.2 21:55:26 10° NW 21:58:22 82° NE 22:00:43 19° SE
SL-16 R/B 3.1 21:53:29 10° NNW 21:58:55 42° NE 22:04:11 11° ESE
Cosmos 1354 Rocket 4.4 21:55:11 14° S 21:59:26 46° ESE 22:04:28 10° NE
H-2A R/B 3.7 21:56:27 14° SE 21:59:35 33° ENE 22:03:19 10° N
Landsat 5 3.7 21:56:26 10° N 22:00:34 73° WNW 22:04:48 10° SSW
Cosmos 2237 Rocket 2.3 21:54:55 10° NNW 22:00:36 77° WSW 22:05:00 17° SSE
COSMOS 2455 2.9 21:58:27 10° SW 22:04:29 85° NW 22:10:35 10° NE
Cosmos 1242 Rocket 4.2 22:03:05 10° SW 22:05:17 22° WNW 22:07:29 10° NNW
Cosmos 1745 Rocket 4.1 21:59:00 10° S 22:05:22 85° W 22:11:47 10° N
USA 281 3.5 22:00:04 14° SE 22:05:50 66° ENE 22:12:22 10° NNW
CZ-4C R/B 1.9 22:02:01 10° SW 22:06:37 89° WNW 22:12:32 10° NE
Cosmos 2227 Rocket 2.8 22:03:20 16° S 22:07:23 39° ESE 22:12:37 10° NE
Nadezhda 1 Rocket 4.3 22:01:19 10° NNW 22:07:29 63° W 22:13:02 12° S
Meteor 2-5 Rocket 4.0 22:05:17 16° S 22:09:55 58° E 22:15:35 10° NNE
Cosmos 2151 Rocket 4.2 22:07:03 10° N 22:11:16 43° ENE 22:14:08 19° SE
Cosmos 773 Rocket 4.4 22:09:11 10° NNW 22:14:13 55° WSW 22:18:03 17° S
Cosmos 1980 4.0 22:09:30 10° NW 22:15:04 58° WSW 22:19:14 18° S
Okean 2 Rocket 3.8 22:11:39 10° N 22:15:59 45° ENE 22:18:55 19° SE
Cosmos 304 Rocket 3.8 22:13:43 10° SSW 22:18:28 84° WNW 22:23:16 10° NNE
Cosmos 2297 Rocket 2.2 22:20:37 10° SSW 22:26:16 89° WNW 22:31:58 10° NNE
ALOS 2 3.4 22:25:43 17° SE 22:28:40 41° ENE 22:32:48 10° N
MINOTAUR 4 R/B 3.8 22:27:37 10° NNE 22:30:27 50° ESE 22:31:27 32° SSE
CZ-2C R/B 3.6 22:29:21 10° NNE 22:33:48 89° ESE 22:37:07 18° SSW
Cosmos 2098 Rocket 4.0 22:27:59 10° N 22:34:34 84° W 22:38:52 20° S
Cosmos 1461 4.3 22:34:55 19° SE 22:35:23 19° ESE 22:38:10 10° ENE
Cosmos 1703 3.4 22:33:06 18° SSW 22:35:41 65° WNW 22:39:21 10° N
Cosmos 1408 3.8 22:33:30 11° SW 22:36:00 28° WNW 22:38:40 10° N
NOSS 3-2 (A) 3.9 22:33:40 21° SSE 22:36:30 35° ESE 22:41:55 10° NE
Cosmos 2181 Rocket 4.0 22:31:15 10° N 22:37:27 81° E 22:41:46 21° SSE
Cosmos 2219 3.8 22:37:53 21° SSE 22:41:06 40° ESE 22:46:18 10° NE
H-2A R/B 4.1 22:41:20 10° NE 22:43:35 14° E 22:45:13 12° ESE
Cosmos 1777 Rocket 4.2 22:39:06 10° SSW 22:44:20 76° WNW 22:49:39 10° NNE
Orbus 7S? 4.1 22:42:20 10° NW 22:45:03 35° NNE 22:47:39 10° E
Cosmos 332 Rocket 3.8 22:41:57 18° SSW 22:45:39 79° ESE 22:50:34 10° NNE
BREEZE-M DEB (TANK) 3.7 22:42:50 10° W 22:46:07 74° S 22:56:27 10° ESE
Cosmos 1825 2.3 22:44:58 30° SSE 22:46:19 49° E 22:49:39 10° NNE
Cosmos 2263 Rocket 3.1 22:44:09 21° SSE 22:46:53 32° ESE 22:51:47 10° NE
Meteor 1-24 Rocket 3.8 22:42:46 15° SSW 22:47:28 77° WNW 22:52:59 10° N
Cosmos 2221 Rocket 3.7 22:46:44 25° SSE 22:49:12 61° E 22:53:35 10° NNE
Sich 1 Rocket 3.5 22:49:12 10° NNW 22:53:36 82° W 22:56:04 26° S
Okean 1 Rocket 3.1 22:50:41 10° N 22:55:04 69° ENE 22:57:31 25° SSE
Cosmos 1538 Rocket 4.0 22:50:14 10° NNW 22:55:30 90° WSW 22:58:51 23° SSE
PSLV R/B 4.0 22:52:11 10° N 22:56:11 73° WNW 22:58:45 21° SSW
Cosmos 1263 4.0 22:54:33 10° N 22:57:43 83° E 22:58:45 38° SSE
Cosmos 1818 3.6 22:54:58 10° NW 23:00:30 84° NE 23:04:38 18° SE
Cosmos 1892 2.4 23:03:07 30° SSW 23:04:44 86° W 23:08:18 10° N
Spot 4 4.0 23:03:31 24° S 23:06:21 68° WSW 23:11:12 10° NNW
Nadezhda 3 Rocket 4.1 23:07:16 10° N 23:13:32 73° ENE 23:17:41 22° SSE
Cosmos 1025 Rocket 3.4 23:12:05 27° SSE 23:14:09 51° E 23:18:19 10° NNE
Cosmos 405 Rocket 4.3 23:13:01 10° NW 23:16:10 25° W 23:18:05 17° SW
CENTAUR R/B 2.5 23:11:00 10° SW 23:16:50 88° SE 23:24:09 10° NE
Cosmos 1975 Rocket 4.3 23:15:39 20° SE 23:17:45 30° E 23:21:38 10° NNE
ARIANE 5 R/B 4.2 23:19:17 15° SW 23:21:47 25° W 23:25:25 10° NW
Cosmos 923 Rocket 4.1 23:17:14 10° NNW 23:22:31 72° ENE 23:26:02 21° SE
Cosmos 1455 Rocket 3.4 23:19:51 10° N 23:24:17 61° ENE 23:26:44 25° SSE
BlueWalker 3 2.4 23:22:48 10° WNW 23:26:32 62° N 23:30:15 10° E
Cosmos 1328 3.7 23:25:24 30° S 23:27:13 89° W 23:31:08 10° N
Cosmos 1898 Rocket 3.7 23:25:20 26° S 23:28:04 53° ESE 23:33:06 10° NNE
Cosmos 1378 Rocket 4.4 23:25:05 18° SW 23:28:04 45° WNW 23:32:20 10° N
Aureole 1 Rocket 3.1 23:26:54 29° S 23:28:58 69° ESE 23:34:07 10° NNE
Cosmos 2184 Rocket 4.1 23:26:26 21° SSW 23:30:53 83° W 23:37:19 10° N
Meteor 1-21 Rocket 4.4 23:27:44 24° S 23:31:09 64° E 23:36:43 10° NNE
Cosmos 1674 Rocket 4.2 23:29:17 20° SW 23:32:04 48° WNW 23:36:16 10° N
USA 234 3.5 23:26:42 10° ENE 23:33:14 75° NNW 23:39:46 10° WSW
H-2A R/B 3.7 23:32:26 20° SW 23:34:29 31° W 23:38:14 10° NNW
SL-16 R/B 2.8 23:37:43 10° NW 23:43:03 42° WSW 23:46:02 23° SSW
Cosmos 2237 Rocket 4.3 23:40:55 10° WNW 23:43:41 14° W 23:46:27 10° SW
Cosmos 2228 4.5 23:40:50 10° N 23:44:40 30° ENE 23:47:43 14° SE
Cosmos 1603 4.2 23:43:01 10° NNW 23:48:44 58° NE 23:54:09 11° SE
Cosmos 2154 Rocket 4.1 23:45:18 22° SSW 23:49:35 75° W 23:55:58 10° N
Cosmos 1943 3.2 23:44:05 10° NNW 23:49:44 83° ENE 23:53:53 19° SSE
USA 281 4.2 23:46:56 18° SSW 23:50:44 32° WSW 23:56:33 10° NW
Cosmos 2227 Rocket 3.2 23:45:59 10° WSW 23:51:24 44° NW 23:56:50 10° NNE
Meteor 2-1 Rocket 4.4 23:46:46 10° N 23:52:41 76° ENE 23:56:33 22° SSE
PSLV R/B 3.5 23:48:32 10° NNE 23:52:45 81° WNW 23:54:55 28° SSW
Cosmos 1867 4.5 23:50:22 23° SSE 23:52:45 33° ESE 23:57:37 10° NE
